Estación de San Javier

Ultimos registro cada 15 minutos 34
Estación Fecha / Hora Temperatura Humedad Lluvia Velocidad Dirección Radiación Presion
34 San Javier 09-05-2026 08:15 4,8 93 0 0,4 324 98 1019,9
33 San Javier 09-05-2026 08:00 4,4 94 0 0 15 16 1019,8
32 San Javier 09-05-2026 07:45 4,2 94 0 0 9 16 1019,8
31 San Javier 09-05-2026 07:30 4,2 93 0 0 355 5 1019,9
30 San Javier 09-05-2026 07:15 4,3 93 0 0 18 0 1019,6
29 San Javier 09-05-2026 07:00 4,5 93 0 0 36 0 1019,9
28 San Javier 09-05-2026 06:45 4,6 93 0 0 11 0 1020,1
27 San Javier 09-05-2026 06:30 4,8 93 0 0,4 13 0 1020,1
26 San Javier 09-05-2026 06:15 4,9 93 0 0 5 0 1020,2
25 San Javier 09-05-2026 06:00 5,1 93 0 0 10 0 1020,2
24 San Javier 09-05-2026 05:45 5,2 93 0 0 66 0 1020,3
23 San Javier 09-05-2026 05:30 5,4 93 0 0 23 0 1020,4
22 San Javier 09-05-2026 05:15 5,8 93 0 0 355 0 1020,4
21 San Javier 09-05-2026 05:00 6,1 93 0 0 5 0 1020,2
20 San Javier 09-05-2026 04:45 6,5 92 0 0 42 0 1020,3
19 San Javier 09-05-2026 04:30 6,9 93 0 0 59 0 1020,5
18 San Javier 09-05-2026 04:15 7,1 93 0 0,4 5 0 1020,6
17 San Javier 09-05-2026 04:00 7,2 93 0 0 5 0 1020,7
16 San Javier 09-05-2026 03:45 7,4 93 0 0 28 0 1020,7
15 San Javier 09-05-2026 03:30 7,6 93 0 1,3 5 0 1020,8
14 San Javier 09-05-2026 03:15 7,7 92 0 0 5 0 1020,9
13 San Javier 09-05-2026 03:00 8 92 0 0,4 13 0 1020,9
12 San Javier 09-05-2026 02:45 8,3 92 0 0 348 0 1020,9
11 San Javier 09-05-2026 02:30 8,5 92 0 0,4 15 0 1021,1
10 San Javier 09-05-2026 02:15 8,6 92 0 0 5 0 1021,1
9 San Javier 09-05-2026 02:00 8,8 91 0 0 350 0 1021,1
8 San Javier 09-05-2026 01:45 9,1 92 0 0 69 0 1021,3
7 San Javier 09-05-2026 01:30 9,2 92 0 0 31 0 1021,2
6 San Javier 09-05-2026 01:15 9,4 93 0 0 15 0 1021,3
5 San Javier 09-05-2026 01:00 9,6 93 0 0 12 0 1021,3
4 San Javier 09-05-2026 00:45 9,6 93 0 0,9 344 0 1021,2
3 San Javier 09-05-2026 00:30 9,6 93 0 0 360 0 1021,2
2 San Javier 09-05-2026 00:15 9,6 93 0 0 355 0 1021,3
1 San Javier 09-05-2026 00:00 9,6 93 0 1,8 5 0 1021,4